This is the latest recevied weather packets stored in our database for station/object XW7RMR. If no packets are shown the sender has not sent any weather packets the latest 1 day(s).
| Time | Temp. | Humidity | Pressure | Rain* | Wind** | Luminosity | Snow |
|---|---|---|---|---|---|---|---|
| 1778031480 | 19.44° C | 66% | 1014 hPa | 0 mm | 0 m/s | 165 W/m² | - |
| 1778031177 | 18.89° C | 66% | 1013.8 hPa | 0 mm | 0.89 m/s, 149° | 179 W/m² | - |
| 1778030873 | 18.89° C | 66% | 1013.9 hPa | 0 mm | 0.45 m/s, 73° | 196 W/m² | - |
| 1778030570 | 18.89° C | 66% | 1014.1 hPa | 0 mm | 0.89 m/s, 133° | 213 W/m² | - |
| 1778030268 | 18.89° C | 66% | 1013.9 hPa | 0 mm | 0 m/s | 258 W/m² | - |
| 1778029964 | 18.33° C | 66% | 1014 hPa | 0 mm | 0 m/s | 157 W/m² | - |
| 1778029662 | 18.33° C | 68% | 1014.1 hPa | 0 mm | 0.89 m/s, 66° | 148 W/m² | - |
| 1778029359 | 18.89° C | 67% | 1014 hPa | 0 mm | 1.34 m/s, 40° | 148 W/m² | - |
| 1778029057 | 18.89° C | 66% | 1013.9 hPa | 0 mm | 0 m/s | 170 W/m² | - |
| 1778028753 | 19.44° C | 65% | 1013.8 hPa | 0 mm | 1.79 m/s, 131° | 192 W/m² | - |
| 1778028449 | 18.89° C | 66% | 1013.9 hPa | 0 mm | 0.45 m/s, 48° | 246 W/m² | - |
| 1778028147 | 18.89° C | 66% | 1014 hPa | 0 mm | 0.45 m/s, 27° | 224 W/m² | - |
| 1778027842 | 18.89° C | 66% | 1013.8 hPa | 0 mm | 0.45 m/s, 24° | 243 W/m² | - |
| 1778027539 | 18.33° C | 68% | 1013.9 hPa | 0 mm | 0.45 m/s, 35° | 240 W/m² | - |
| 1778027235 | 18.89° C | 66% | 1013.9 hPa | 0 mm | 0 m/s | 353 W/m² | - |
| 1778026932 | 18.89° C | 65% | 1013.9 hPa | 0 mm | 0.45 m/s, 13° | 237 W/m² | - |
| 1778026627 | 18.89° C | 66% | 1014 hPa | 0 mm | 0.89 m/s, 255° | 245 W/m² | - |
| 1778026325 | 18.89° C | 66% | 1014.1 hPa | 0 mm | 0.89 m/s, 121° | 245 W/m² | - |
| 1778026022 | 18.33° C | 67% | 1014.2 hPa | 0 mm | 0 m/s | 221 W/m² | - |
| 1778025720 | 18.89° C | 67% | 1014.1 hPa | 0 mm | 0.89 m/s, 52° | 254 W/m² | - |
| 1778025417 | 18.33° C | 67% | 1014.2 hPa | 0 mm | 1.34 m/s, 37° | 247 W/m² | - |
| 1778025115 | 18.89° C | 67% | 1014.2 hPa | 0 mm | 0 m/s | 256 W/m² | - |
| 1778024811 | 18.89° C | 65% | 1014.4 hPa | 0 mm | 0.45 m/s, 351° | 245 W/m² | - |
| 1778024508 | 18.89° C | 67% | 1014.5 hPa | 0 mm | 0 m/s | 274 W/m² | - |
| 1778024205 | 18.33° C | 66% | 1014.5 hPa | 0 mm | 0.89 m/s, 9° | 263 W/m² | - |
* Rain latest hour (hover to see other rain measurements)
** Current wind speed in m/s (hover to see current wind gust speed)